Simultaneous Nadir Overpasses (SNOs) Predictions

Prediction of SNOs between METOP-B and TERRA Satellite Orbit:

Table of predicted SNOs for the next 14.0 days since TLE Epoch: 10/20/2012
Index Date (METOP-B) Time (METOP-B) METOP-B Lat,Lon Date (TERRA) Time (TERRA) TERRA Lat,Lon Distance(km) Time Diff (sec)
1 10/20/2012 23:09:01 81.26,-120.90 10/20/2012 23:09:10 81.25,-120.83 1.34 9
2 10/20/2012 23:59:39 -81.27, 47.25 10/20/2012 23:58:36 -81.27, 47.11 2.32 63
3 10/23/2012 17:53:04 -81.07, 130.86 10/23/2012 17:54:18 -80.82, 131.58 30.80 74
4 10/23/2012 18:43:26 81.26, -54.41 10/23/2012 18:43:26 81.26, -54.25 2.66 0
5 10/23/2012 19:34:05 -81.27, 113.40 10/23/2012 19:32:53 -81.26, 113.34 1.45 72
6 10/26/2012 13:27:10 -81.26,-155.38 10/26/2012 13:28:16 -81.25,-155.57 3.15 66
7 10/26/2012 14:17:51 81.26, 12.06 10/26/2012 14:17:42 81.26, 12.14 1.34 9
8 10/29/2012 09:01:34 -81.26, -88.89 10/29/2012 09:02:30 -81.26, -88.97 1.50 56
9 10/29/2012 09:52:14 81.27, 78.89 10/29/2012 09:51:56 81.27, 78.71 3.05 18
10 11/01/2012 04:35:59 -81.26, -22.41 11/01/2012 04:36:45 -81.26, -22.57 2.65 46




NCC Satellite Simultaneous Nadir Overpasses (SNOs) Prediction Service
